Weather observations for the past three days for
Olympia, Olympia Airport
Imperial (Metric)
Date Time (pdt) Wind (mph) Vis. (mi.) Weather Sky Cond. Temperature (ºF) Relative Humidity Wind Chill (°F) Heat Index (°F) Pressure Precipitation (in)
Air Dwpt 6 hour altimeter (in) sea level (mb) 1 hr 3 hr 6 hr
Max. Min.
06 23:54 SW 8 10.00 Overcast OVC031 52 44.1 75% 30.16 1021.2
06 22:54 S 9 10.00 Overcast OVC031 53.1 44.1 57.9 53.1 72% 30.16 1021.3
06 21:54 SW 8 10.00 Overcast OVC027 53.1 44.1 72% 30.16 1021.4
06 20:54 SW 8 10.00 Overcast OVC027 54 46 75% 30.16 1021.2
06 19:54 SW 10 10.00 Overcast OVC028 55 46.9 74% 30.14 1020.7
06 18:54 SW 8 10.00 Overcast OVC022 55.9 46.9 72% 30.14 1020.7
06 17:54 W 10 G 18 10.00 Overcast OVC026 57 46.9 69% 30.14 1020.7
06 16:54 SW 9 10.00 Overcast OVC026 57 46.9 57.9 55 69% 30.15 1020.8
06 15:54 SW 13 G 22 10.00 Overcast OVC023 57.9 46.9 67% 30.15 1020.9
06 14:54 SW 15 G 22 10.00 Overcast OVC025 57 46.9 69% 30.16 1021.2
06 13:54 W 14 G 22 10.00 Overcast OVC024 57 46.9 69% 30.16 1021.2
06 12:54 SW 9 10.00 Overcast OVC021 55.9 46.9 72% 30.15 1021.0
06 11:54 SW 8 10.00 Overcast OVC022 55.9 46.9 72% 30.15 1021.0
06 10:54 SW 13 G 20 10.00 Overcast OVC022 55.9 46 55.9 52 70% 30.13 1020.4
06 09:54 SW 8 10.00 Overcast OVC018 55 46 72% 30.14 1020.6
06 08:54 W 7 10.00 Overcast OVC014 54 46.9 77% 30.12 1020.1
06 07:54 SW 7 10.00 Overcast OVC014 53.1 46.9 80% 30.12 1020.1
06 06:54 SW 8 10.00 Overcast OVC016 52 46.9 83% 30.11 1019.7
06 05:54 SW 6 10.00 Overcast OVC014 52 46.9 83% 30.1 1019.2
06 04:54 SW 8 10.00 Overcast OVC011 52 48 53.1 52 86% 30.09 1019.0
06 03:54 SW 8 10.00 Overcast OVC011 52 48 86% 30.08 1018.6
06 02:54 SW 8 10.00 Overcast OVC013 53.1 48 83% 30.07 1018.2
06 01:54 S 6 10.00 Overcast OVC017 53.1 48 83% 30.06 1018.0
06 00:54 SW 5 10.00 Overcast OVC019 53.1 48 83% 30.05 1017.5
05 23:54 SW 5 10.00 Fair CLR 52 48 86% 30.03 1016.9
05 22:54 SW 5 10.00 Fair CLR 53.1 48.9 64 52 86% 30.02 1016.6
05 21:54 S 6 10.00 Fair CLR 53.1 48.9 86% 30.01 1016.3
05 20:54 S 6 10.00 Fair CLR 55.9 50 81% 30 1015.8
05 19:54 SW 8 10.00 Fair CLR 60.1 50 70% 29.98 1015.3
05 18:54 SW 8 10.00 Fair CLR 63 51.1 65% 29.98 1015.2
05 17:54 SW 9 10.00 Mostly Cloudy BKN027 64 52 65% 29.98 1015.2
05 16:54 Vrbl 6 10.00 Overcast OVC025 64 52 64 57 65% 29.99 1015.5
05 15:54 W 7 10.00 Overcast OVC024 62.1 51.1 67% 30.01 1016.2
05 14:54 Vrbl 3 10.00 Overcast OVC023 61 51.1 70% 30.02 1016.5
05 13:54 S 6 10.00 Overcast OVC022 60.1 50 70% 30.02 1016.6
05 12:54 SW 7 10.00 Overcast OVC021 59 50 72% 30.02 1016.6
05 11:54 SW 7 10.00 Overcast OVC020 57.9 48.9 72% 30.02 1016.7
05 10:54 S 6 10.00 Overcast OVC019 57 48.9 57 55 74% 30.02 1016.5
05 09:54 S 6 10.00 Overcast OVC018 57 48.9 74% 30.01 1016.3
05 08:54 S 6 10.00 Overcast OVC020 57 48.9 74% 30 1016.0
05 07:54 SW 5 10.00 Overcast OVC017 55 48.9 80% 29.99 1015.6
05 06:54 SW 6 10.00 Overcast OVC017 55 50 83% 29.98 1015.2
05 05:54 SW 7 10.00 Overcast OVC016 55 48.9 80% 29.96 1014.5
05 04:54 SW 7 10.00 Overcast OVC017 55 50 55 46.9 83% 29.95 1014.1
05 03:54 SW 7 10.00 Overcast OVC017 54 50 87% 29.94 1013.9
05 02:54 S 3 10.00 Overcast OVC018 52 50 93% 29.94 1013.7
05 01:54 Calm 3.00 Fog/Mist CLR 48 46.9 96% 29.93 1013.4
05 00:54 Calm 10.00 A Few Clouds FEW016 50 46.9 89% 29.93 1013.4
04 23:54 Calm 10.00 Fair CLR 52 48.9 89% 29.9 1012.5
04 22:54 S 3 10.00 Fair CLR 52 48 77 52 86% 29.89 1012.0
04 21:54 S 6 10.00 Fair CLR 54 48.9 83% 29.88 1011.8
04 20:54 SW 7 10.00 Fair CLR 57.9 50 75% 29.86 1011.1
04 19:54 S 9 10.00 Fair CLR 63 50 63% 29.84 1010.4
04 18:54 S 9 10.00 Fair CLR 70 51.1 51% 29.83 1010.0
04 17:54 Vrbl 3 10.00 Fair CLR 73.9 51.1 45% 29.82 1009.9
04 16:54 NW 6 10.00 Fair CLR 77 51.1 78.1 66 40% 78 29.82 1009.7
04 15:54 S 10 10.00 Fair CLR 78.1 52 40% 79 29.82 1009.8
04 14:54 S 10 10.00 Fair CLR 75.9 52 43% 78 29.84 1010.3
04 13:54 SW 9 10.00 Fair CLR 75 52 45% 78 29.85 1010.8
04 12:54 S 8 10.00 Fair CLR 72 53.1 52% 29.86 1011.3
04 11:54 SW 9 10.00 Fair CLR 68 53.1 59% 29.88 1011.7
04 10:54 SW 9 10.00 Fair CLR 66 53.1 66 43 63% 29.88 1011.9
04 09:54 S 8 10.00 Fair CLR 64 52 65% 29.88 1011.7
04 08:54 SW 5 10.00 Fair CLR 60.1 50 70% 29.87 1011.4
04 07:54 S 5 10.00 Fair CLR 55.9 50 81% 29.85 1010.8
04 06:54 Calm 10.00 Fair CLR 48.9 46 90% 29.84 1010.4
04 05:54 Calm 10.00 Fair CLR 45 44.1 97% 29.82 1009.8
04 04:54 Calm 10.00 Fair CLR 46.9 45 61 46.9 93% 29.82 1009.5
04 03:54 Calm 10.00 Fair CLR 48.9 46 90% 29.81 1009.3
04 02:54 Calm 10.00 Fair CLR 50 45 83% 29.8 1009.2
04 01:54 Calm 10.00 Fair CLR 51.1 46 83% 29.81 1009.2
04 00:54 Calm 10.00 Fair CLR 52 46 80% 29.81 1009.3
Date Time (pdt) Wind (mph) Vis. (mi.) Weather Sky Cond. Air Dwpt Max. Min. Relative Humidity Wind Chill (°F) Heat Index (°F) altimeter (in) sea level (mb) 1 hr 3 hr 6 hr
6 hour
Temperature (ºF) Pressure Precipitation (in)